SJ-20

导读

实践二十号(SJ-20)是中国于2019年12月27日在文昌航天发射场由长征五号遥三运载火箭发射的新技术试验卫星。该卫星重达8吨,是当时中国发射重量最重、技术含金量最高的通信卫星,基于东方红五号新一代大型卫星平台研制,主要用于验证东五平台关键技术,同时搭载激光通信、Q/V频段通信等十余项前沿试验载荷,可提供高速通信广播服务,填补了中国大型卫星平台型谱空白,满足未来高通量通信卫星发展需求。

Basic Information
目录编号:
44910
目录名称:
SJ-20
国际标识:
2019-097A
轨道中心:
EARTH
卫星名称:
SJ-20
卫星全名:
--
卫星状态:
在轨 (已飞行2362 天)
发射日期:
2019-12-27 UTC
国别 :
中国 (CN)
星等 :
--
Orbit Information
数据来源 国际轨道数据 AOE轨道数据
星历时间 2026-06-15T04:09:51+0800
5小时前
查看轨道信息
2026-06-15T05:00:00+0800
4小时前
查看轨道信息
半长轴 42163.186km 42163.074km
偏心率 0.0013881 0.0013861
轨道倾角 4.913° 4.913°
近地点辐角 55.013° 55.076°
升交点赤经 75.091° 75.091°
平近点角 120.379° 132.891°
近地点 35726.522km 35726.494km
远地点 35843.576km 35843.38km
周期 1436.018分钟 1436.012分钟
每日圈数 1.002773 1.002777
Detailed Information
使用方式:
暂无
2D Orbit Map
3D Orbit Map
Orbit Altitude Analysis Chart
Orbit Inclination Analysis Chart
Orbit Comprehensive Analysis Chart
View Comprehensive Chart